Location: Gleizolles
(44.4833°N, 6.7667°E)
Time: 21:04:25
(UTC+00:00)

Explorer 7 - Pass Details

Date: 23 June 2024
Orbit: 465 x 619 km, 50.3° (Epoch: 19 July)

Event Time Altitude Azimuth Distance (km) Brightness Sun altitude
Rises 10:05:40 0° 232° (SW) 2,710 10.3 62.1°
Reaches altitude 10° 10:07:58 10° 230° (SW) 1,791 9.5 62.4°
Maximum altitude 10:11:59 66° 149° (SSE) 568 9.8 62.9°
Drops below altitude 10° 10:15:49 10° 66° (ENE) 1,707 9.6 63.4°
Sets 10:17:58 0° 64° (ENE) 2,570 10.3 63.7°
